Regional Weather Roundup
Issued by NWS Newport/Morehead, NC

Current Version | Previous Version | Text Only | Print | Product List | Glossary On
Versions: 1 2 3 4 5 6 7 8 9 10 11 12 13 14 15 16 17 18 19 20 21 22 23 24 25 26 27 28 29 30 31 32 33 34 35 36 37 38 39 40 41 42 43 44 45 46 47 48 49 50
000
ASUS42 KMHX 300313
RWRMHX
WEATHER ROUNDUP FOR EASTERN NORTH CAROLINA
NATIONAL WEATHER SERVICE NEWPORT/MOREHEAD CITY NC
1100 PM EDT FRI JUL 29 2016

NOTE: "FAIR" INDICATES FEW OR NO CLOUDS BELOW 12,000 FEET
WITH NO SIGNIFICANT WEATHER AND/OR OBSTRUCTIONS TO VISIBILITY

NCZ015>017-031-032-045>047-102-103-300400-
NORTH COAST

CITY           SKY/WX    TMP DP  RH WIND       PRES   REMARKS
EDENTON        CLEAR     79  79 100 CALM      29.96R
ELIZABETH CITY CLEAR     80  73  79 E3        29.95R
KITTY HAWK     CLEAR     79  79 100 CALM      29.94R
MANTEO           N/A     79  77  94 CALM      29.95R

$$

NCZ045>047-081-094-103-104-300400-
CENTRAL COAST

CITY           SKY/WX    TMP DP  RH WIND       PRES   REMARKS
FRISCO         CLOUDY    80  74  81 CALM      29.94R

$$

NCZ095-097-098-100-101-300400-
SOUTHERN COAST

CITY           SKY/WX    TMP DP  RH WIND       PRES   REMARKS
BEAUFORT       MOCLDY    83  80  91 SW8       29.95S
CEDAR ISLAND   NOT AVBL
JACKSONVILLE   CLOUDY    81  77  88 CALM      29.95R
PINEY ISLAND   NOT AVBL
WILMINGTON     CLEAR     83  78  85 SW6       29.96R


$$

NCZ011>013-027>030-043-044-078>080-089-090>093-098-300400-
COASTAL PLAIN

CITY           SKY/WX    TMP DP  RH WIND       PRES   REMARKS
AHOSKIE        CLEAR     75  74  98 CALM      29.96S
CLINTON        CLEAR     79  74  86 CALM      29.96R
ELIZABETHTOWN  CLOUDY    83  75  77 CALM      29.96R
GOLDSBORO      CLEAR     79  76  89 E3        29.94S
GREENVILLE     CLEAR     79  77  94 CALM      29.98S
HAVELOCK       PTCLDY    81  77  88 CALM      29.96R
KENANSVILLE    NOT AVBL
KINSTON        CLEAR     78  73  84 CALM      29.97
NEW BERN       CLEAR     80  77  90 CALM      29.97R
RICHLANDS      CLEAR     79  75  87 CALM      29.97R
ROCKY MOUNT    CLEAR     76  75  97 CALM      29.96R
WASHINGTON     CLEAR     79  75  89 CALM      29.96R
WHITEVILLE     LGT RAIN  84  75  75 CALM      29.96R

$$

AMZ130-135-150-152-154-156-158-170-250-252-270-ANZ085-086-088-633-658-670-300400-
MARINE OBSERVATIONS

STATION/POSITION TIME  TEMP    WIND        PRES    WAVE   SWELL
                       AIR SEA DIR/SP/G            HT/PER HT/PER
                 (UTC) (F)     (DEG/KT/KT) (MB)    (FT/S) (FT/S)
CHESAPEAKE LIGHT NOT AVBL
64 E VA BEACH    0250   81 83   50/  8/  8 1013.8    3/ 6   2/ 6
DUCK             0200   80 75   60/  4/  4 1013.2
2 E DUCK         0211      79                N/A     1/14
OREGON INLET     0200   80 78  350/  4/  5 1013.7
13E OREGON INLT  0300      79                N/A     3/ 5   2/ 5
HATTERAS CG      0200   80 84  300/ 10/ 13 1013.3
DIAMOND BUOY     0250   83 85  330/ 10/ 14 1014.1    4/ 5   3/ 5
CAPE LOOKOUT     0300   84     250/  9/ 11 1014.1
BEAUFORT LAB     0200   84 83  250/  3/  7 1013.6
30 SE NEW RVR IN 0208   85 85  240/ 16/ 19 1014.2
30 SE NEW RVR IN 0225      85                N/A     5/ 6
27 SE WRIGHTSVLE 0208   85 84  230/ 14/ 17 1014.6
5 SE WRIGHTSVLE  0208   82 80  250/  6/  8 1015.1
225 S CAPE HAT   0250   85 85  220/ 10/ 12 1016.7    3/ 6   3/ 6
41 SE CHARLESTON 0250   86 86  210/ 16/ 19 1014.5    3/ 5   2/ 8

$$




USA.gov is the U.S. government's official web portal to all federal, state and local government web resources and services.